2017-008J

Last updated on Thu Mar 09 2017 00:17:46 GMT+0000 (Coordinated Universal Time)

1 41956U 17008J 17067.84449867 .00001873 00000-0 86708-4 0 9994 2 41956 97.5079 129.4199 0009370 172.0810 188.0503 15.21355795 3277
UTC large
Height (km)
Speed (km/s)
/
Latitude / Longitude
Inclination (degrees)
Orbital Period (minutes)
Azimuth
Elevation
Range (km)
Doppler Factor

Next 0 passes for location: London (51.5072 / 0.1276)

Sorry there are no passes over London.